• In Sweden
  • List of Countries
  • For 7 days
  • Water Temperature
  • Satellite Maps
  • Weather Map
  • Weather Widgets
  • user-avatar
    Login

    Hourly Weather Bedford

    Today, 24 September, Sunday

    Time Temperature Precipitation Wind Pressure Humidity
    00:00 +12°C° 0 mm 3 mps 762 mmHg 76%
    01:00 +12°C° 0 mm 3 mps 762 mmHg 77%
    02:00 +13°C° 0 mm 3 mps 761 mmHg 77%
    03:00 +13°C° 0 mm 3 mps 761 mmHg 78%
    04:00 +12°C° 0 mm 3 mps 761 mmHg 81%
    05:00 +12°C° 0 mm 3 mps 761 mmHg 84%
    06:00 +11°C° 0 mm 3 mps 761 mmHg 87%
    07:00 +13°C° 0 mm 4 mps 761 mmHg 81%
    08:00 +15°C° 0 mm 4 mps 762 mmHg 75%
    09:00 +17°C° 0 mm 4 mps 762 mmHg 69%
    10:00 +19°C° 0 mm 5 mps 762 mmHg 64%
    11:00 +20°C° 0 mm 5 mps 762 mmHg 60%
    12:00 +21°C° 0 mm 5 mps 761 mmHg 55%
    13:00 +21°C° 0 mm 5 mps 761 mmHg 55%
    14:00 +21°C° 0 mm 5 mps 761 mmHg 55%
    15:00 +21°C° 0 mm 5 mps 761 mmHg 55%
    16:00 +20°C° 0 mm 4 mps 761 mmHg 60%
    17:00 +19°C° 0 mm 4 mps 761 mmHg 66%
    18:00 +17°C° 0 mm 3 mps 761 mmHg 71%
    19:00 +17°C° 0.1 mm 3 mps 761 mmHg 74%
    20:00 +17°C° 0.1 mm 3 mps 761 mmHg 77%
    21:00 +16°C° 0.1 mm 3 mps 761 mmHg 80%
    22:00 +16°C° 0.2 mm 3 mps 761 mmHg 82%
    23:00 +16°C° 0.2 mm 2 mps 761 mmHg 84%

    Tomorrow, 25 September, Monday

    Time Temperature Precipitation Wind Pressure Humidity
    00:00 +16°C° 0.2 mm 2 mps 761 mmHg 85%
    01:00 +16°C° 1.1 mm 2 mps 760 mmHg 87%
    02:00 +16°C° 1.1 mm 3 mps 760 mmHg 88%
    03:00 +16°C° 1.1 mm 3 mps 760 mmHg 89%
    04:00 +14°C° 0.8 mm 3 mps 760 mmHg 89%
    05:00 +14°C° 0.8 mm 3 mps 760 mmHg 89%
    06:00 +14°C° 0.8 mm 3 mps 760 mmHg 90%
    07:00 +14°C° 0.3 mm 3 mps 760 mmHg 89%
    08:00 +16°C° 0.3 mm 3 mps 760 mmHg 88%
    09:00 +16°C° 0.3 mm 3 mps 760 mmHg 88%
    10:00 +16°C° 0.2 mm 3 mps 760 mmHg 87%
    11:00 +16°C° 0.2 mm 3 mps 760 mmHg 86%
    12:00 +17°C° 0.2 mm 3 mps 760 mmHg 85%
    13:00 +17°C° 0.2 mm 3 mps 760 mmHg 85%
    14:00 +17°C° 0.2 mm 3 mps 760 mmHg 85%
    15:00 +17°C° 0.2 mm 3 mps 760 mmHg 85%
    16:00 +16°C° 0.2 mm 3 mps 760 mmHg 87%
    17:00 +16°C° 0.2 mm 3 mps 761 mmHg 89%
    18:00 +16°C° 0.2 mm 2 mps 761 mmHg 90%
    19:00 +15°C° 0.1 mm 2 mps 761 mmHg 91%
    20:00 +15°C° 0.1 mm 2 mps 761 mmHg 92%
    21:00 +15°C° 0.1 mm 2 mps 762 mmHg 92%
    22:00 +15°C° 0 mm 2 mps 762 mmHg 92%
    23:00 +15°C° 0 mm 2 mps 761 mmHg 93%

    Day after tomorrow, 26 September, Tuesday

    Time Temperature Precipitation Wind Pressure Humidity
    00:00 +15°C° 0 mm 1 mps 761 mmHg 93%
    01:00 +14°C° 0 mm 1 mps 761 mmHg 93%
    02:00 +14°C° 0 mm 1 mps 761 mmHg 94%
    03:00 +14°C° 0 mm 1 mps 761 mmHg 94%
    04:00 +14°C° 0 mm 1 mps 762 mmHg 94%
    05:00 +13°C° 0 mm 1 mps 762 mmHg 95%
    06:00 +13°C° 0 mm 1 mps 762 mmHg 95%
    07:00 +14°C° 0 mm 1 mps 762 mmHg 91%
    08:00 +15°C° 0 mm 1 mps 762 mmHg 87%
    09:00 +16°C° 0 mm 1 mps 762 mmHg 82%
    10:00 +18°C° 0 mm 1 mps 762 mmHg 78%
    11:00 +19°C° 0 mm 1 mps 763 mmHg 73%
    12:00 +18°C° 0 mm 0 mps 763 mmHg 68%
    13:00 +18°C° 0 mm 0 mps 763 mmHg 66%
    14:00 +21°C° 0 mm 1 mps 762 mmHg 64%
    15:00 +21°C° 0 mm 1 mps 762 mmHg 62%
    16:00 +20°C° 0 mm 1 mps 762 mmHg 67%
    17:00 +19°C° 0 mm 1 mps 762 mmHg 71%
    18:00 +16°C° 0 mm 0 mps 762 mmHg 76%
    19:00 +16°C° 0 mm 1 mps 763 mmHg 78%
    20:00 +16°C° 0 mm 1 mps 763 mmHg 80%
    21:00 +15°C° 0 mm 1 mps 763 mmHg 83%
    22:00 +15°C° 0 mm 1 mps 763 mmHg 84%
    23:00 +15°C° 0 mm 1 mps 763 mmHg 86%

    27 September, Wednesday

    Time Temperature Precipitation Wind Pressure Humidity
    00:00 +14°C° 0 mm 2 mps 763 mmHg 87%
    01:00 +14°C° 0 mm 2 mps 762 mmHg 89%
    02:00 +14°C° 0 mm 2 mps 762 mmHg 90%
    03:00 +14°C° 0 mm 2 mps 762 mmHg 92%
    04:00 +13°C° 0 mm 2 mps 762 mmHg 92%
    05:00 +13°C° 0 mm 2 mps 762 mmHg 93%
    06:00 +13°C° 0 mm 2 mps 762 mmHg 94%
    07:00 +13°C° 0 mm 3 mps 762 mmHg 89%
    08:00 +15°C° 0 mm 4 mps 762 mmHg 83%
    09:00 +17°C° 0 mm 4 mps 762 mmHg 78%
    10:00 +17°C° 0 mm 5 mps 762 mmHg 72%
    11:00 +19°C° 0 mm 5 mps 762 mmHg 66%
    12:00 +20°C° 0 mm 5 mps 762 mmHg 61%
    13:00 +20°C° 0 mm 5 mps 761 mmHg 59%
    14:00 +20°C° 0 mm 5 mps 761 mmHg 58%
    15:00 +20°C° 0 mm 5 mps 761 mmHg 57%
    16:00 +19°C° 0.4 mm 5 mps 760 mmHg 63%
    17:00 +17°C° 0.4 mm 5 mps 760 mmHg 68%
    18:00 +16°C° 0.4 mm 5 mps 760 mmHg 74%
    19:00 +15°C° 1.2 mm 5 mps 760 mmHg 77%
    20:00 +15°C° 1.2 mm 5 mps 760 mmHg 81%
    21:00 +15°C° 1.2 mm 5 mps 760 mmHg 84%
    22:00 +15°C° 0.1 mm 5 mps 760 mmHg 85%
    23:00 +15°C° 0.1 mm 5 mps 760 mmHg 86%

    28 September, Thursday

    Time Temperature Precipitation Wind Pressure Humidity
    00:00 +15°C° 0.1 mm 5 mps 760 mmHg 86%
    01:00 +15°C° 0 mm 4 mps 761 mmHg 89%
    02:00 +14°C° 0 mm 4 mps 761 mmHg 91%
    03:00 +13°C° 0 mm 3 mps 761 mmHg 94%
    04:00 +13°C° 0 mm 3 mps 761 mmHg 94%
    05:00 +13°C° 0 mm 2 mps 762 mmHg 94%
    06:00 +12°C° 0 mm 2 mps 762 mmHg 95%
    07:00 +14°C° 0 mm 2 mps 763 mmHg 90%
    08:00 +15°C° 0 mm 2 mps 763 mmHg 85%
    09:00 +16°C° 0 mm 2 mps 764 mmHg 81%
    10:00 +17°C° 0 mm 2 mps 764 mmHg 75%
    11:00 +18°C° 0 mm 2 mps 764 mmHg 69%
    12:00 +19°C° 0 mm 2 mps 764 mmHg 63%
    13:00 +19°C° 0 mm 2 mps 764 mmHg 62%
    14:00 +19°C° 0 mm 3 mps 763 mmHg 60%
    15:00 +20°C° 0 mm 3 mps 763 mmHg 59%
    16:00 +19°C° 0 mm 3 mps 763 mmHg 64%
    17:00 +17°C° 0 mm 3 mps 763 mmHg 70%
    18:00 +16°C° 0 mm 2 mps 763 mmHg 76%
    19:00 +16°C° 0 mm 3 mps 763 mmHg 78%
    20:00 +14°C° 0 mm 3 mps 763 mmHg 80%
    21:00 +14°C° 0 mm 3 mps 763 mmHg 82%
    22:00 +14°C° 0 mm 3 mps 763 mmHg 83%
    23:00 +13°C° 0 mm 4 mps 762 mmHg 85%

    29 September, Friday

    Time Temperature Precipitation Wind Pressure Humidity
    00:00 +13°C° 0 mm 4 mps 762 mmHg 86%
    01:00 +13°C° 0 mm 4 mps 761 mmHg 86%
    02:00 +13°C° 0 mm 5 mps 761 mmHg 86%
    03:00 +13°C° 0 mm 5 mps 760 mmHg 86%
    04:00 +14°C° 0 mm 5 mps 760 mmHg 84%
    05:00 +14°C° 0 mm 5 mps 759 mmHg 82%
    06:00 +15°C° 0 mm 6 mps 759 mmHg 80%
    07:00 +15°C° 0.1 mm 6 mps 758 mmHg 80%
    08:00 +16°C° 0.1 mm 6 mps 758 mmHg 79%
    09:00 +17°C° 0.1 mm 7 mps 758 mmHg 78%
    10:00 +17°C° 1.1 mm 7 mps 757 mmHg 79%
    11:00 +18°C° 1.1 mm 7 mps 757 mmHg 80%
    12:00 +18°C° 1.1 mm 7 mps 756 mmHg 81%
    13:00 +19°C° 1.9 mm 6 mps 756 mmHg 83%
    14:00 +17°C° 1.9 mm 6 mps 756 mmHg 85%
    15:00 +17°C° 1.9 mm 6 mps 756 mmHg 87%
    16:00 +16°C° 0.2 mm 5 mps 756 mmHg 87%
    17:00 +15°C° 0.2 mm 4 mps 756 mmHg 87%
    18:00 +15°C° 0.2 mm 4 mps 757 mmHg 86%
    19:00 +14°C° 0 mm 4 mps 757 mmHg 87%
    20:00 +13°C° 0 mm 4 mps 758 mmHg 87%
    21:00 +12°C° 0 mm 4 mps 758 mmHg 87%
    22:00 +11°C° 0 mm 4 mps 759 mmHg 87%
    23:00 +11°C° 0 mm 4 mps 759 mmHg 87%
    Show more